Weather History for KNIP - June, 2012

Change the Weather History Date:

Tuesday, June 12, 2012

  Actual Average Record
Temperature  
Mean Temperature 83 °F -  
Max Temperature 95 °F 87 °F 102 °F (1998)
Min Temperature 73 °F 72 °F 69 °F (2007)
Cooling Degree Days 18    
Growing Degree Days 33 (Base 50)    
Moisture  
Dew Point 70 °F    
Average Humidity 76    
Maximum Humidity 91    
Minimum Humidity 41    
Precipitation  
Precipitation 0.47 in - - ()
Sea Level Pressure  
Sea Level Pressure 30.01 in    
Wind  
Wind Speed 11 mph (SSW)    
Max Wind Speed 28 mph    
Max Gust Speed 44 mph    
Visibility 8 miles    
Events Rain , Thunderstorm    
Averages and records for this station are not official NWS values.
T = Trace of Precipitation, MM = Missing Value Source: NWS Daily Summary

Daily Weather History Graph

Daily Weather History Graph

Search for Another Location

Airport or City:

Trip Planner

Search our weather history database for the weather conditions in past years. The results will help you decide how hot, cold, wet, or windy it might be!

Date:

Astronomy

Jun. 12, 2012 Rise Set
Actual Time 6:24 AM EDT 8:29 PM EDT
Civil Twilight 5:56 AM EDT 8:56 PM EDT
Nautical Twilight 5:23 AM EDT 9:29 PM EDT
Astronomical Twilight 4:47 AM EDT 10:05 PM EDT
Moon 1:47 AM EDT (6/12) 2:36 PM EDT (6/12)
Length of Visible Light 14h 59m
Length of Day
14h 04m
Last Quarter, 38% of the Moon is Illuminated
Jun 12
Last Quarter
Jun 19
New
Jun 26
First Quarter
Jul 3
Full
Jul 10
Last Quarter

Hourly Weather History & Observations

Time (EDT) Temp. Heat Index Dew Point Humidity Pressure Visibility Wind Dir Wind Speed Gust Speed Precip Events Conditions
12:53 AM 75.0 °F - 72.0 °F 90% 30.08 in 10.0 mi SSE 9.2 mph - N/A   Scattered Clouds
1:53 AM 75.0 °F - 72.0 °F 90% 30.07 in 10.0 mi SE 8.1 mph - N/A   Scattered Clouds
2:53 AM 73.9 °F - 71.1 °F 91% 30.06 in 10.0 mi SSE 9.2 mph - N/A   Scattered Clouds
3:53 AM 73.9 °F - 71.1 °F 91% 30.05 in 10.0 mi SSE 8.1 mph - N/A   Scattered Clouds
4:53 AM 75.9 °F - 71.1 °F 85% 30.04 in 10.0 mi South 9.2 mph - N/A   Scattered Clouds
5:53 AM 77.0 °F - 71.1 °F 82% 30.04 in 10.0 mi South 9.2 mph - N/A   Partly Cloudy
6:53 AM 78.1 °F - 71.1 °F 79% 30.05 in 10.0 mi South 12.7 mph - N/A   Partly Cloudy
7:53 AM 77.0 °F - 70.0 °F 79% 30.06 in 10.0 mi SSW 9.2 mph - N/A   Scattered Clouds
8:53 AM 79.0 °F - 70.0 °F 74% 30.05 in 10.0 mi South 12.7 mph - N/A   Partly Cloudy
9:53 AM 81.0 °F 84.9 °F 71.1 °F 72% 30.03 in 10.0 mi South 12.7 mph - N/A   Scattered Clouds
10:53 AM 82.9 °F 88.0 °F 72.0 °F 69% 30.03 in 10.0 mi SSE 10.4 mph - N/A   Scattered Clouds
11:53 AM 87.1 °F 93.6 °F 72.0 °F 61% 30.03 in 10.0 mi SE 6.9 mph - N/A   Mostly Cloudy
12:53 PM 90.0 °F 94.5 °F 69.1 °F 50% 30.01 in 10.0 mi SW 10.4 mph - N/A   Mostly Cloudy
1:53 PM 91.9 °F 95.4 °F 66.9 °F 44% 29.98 in 10.0 mi SW 12.7 mph 21.9 mph N/A   Mostly Cloudy
2:31 PM 93.2 °F 96.2 °F 66.2 °F 41% 30.00 in 10.0 mi WNW 27.6 mph 33.4 mph N/A Thunderstorm Thunderstorm
2:39 PM 82.4 °F 84.6 °F 66.2 °F 58% 30.02 in 10.0 mi West 23.0 mph 40.3 mph N/A Thunderstorm Thunderstorm
2:45 PM 78.8 °F - 69.8 °F 74% 30.01 in 1.0 mi WNW 27.6 mph 43.7 mph 0.05 in Rain , Thunderstorm Thunderstorms and Rain
2:48 PM 75.2 °F - 69.8 °F 83% 30.01 in 0.5 mi WNW 25.3 mph 43.7 mph 0.13 in Rain , Thunderstorm Heavy Thunderstorms and Rain
2:53 PM 75.0 °F - 69.1 °F 82% 30.02 in 3.0 mi NW 20.7 mph 36.8 mph 0.15 in Rain , Thunderstorm Heavy Thunderstorms and Rain
3:15 PM 75.2 °F - 69.8 °F 83% 30.02 in 2.0 mi West 12.7 mph - 0.15 in Rain , Thunderstorm Heavy Thunderstorms and Rain
3:21 PM 75.2 °F - 69.8 °F 83% 30.00 in 0.5 mi WNW 24.2 mph 29.9 mph 0.24 in Rain , Thunderstorm Heavy Thunderstorms and Rain
3:32 PM 75.2 °F - 69.8 °F 83% 30.00 in 2.5 mi West 12.7 mph - 0.29 in Rain , Thunderstorm Light Thunderstorms and Rain
3:39 PM 75.2 °F - 69.8 °F 83% 30.00 in 5.0 mi West 8.1 mph 19.6 mph 0.32 in Rain , Thunderstorm Heavy Thunderstorms and Rain
3:53 PM 77.0 °F - 71.1 °F 82% 30.00 in 5.0 mi SW 6.9 mph - 0.32 in Rain , Thunderstorm Light Thunderstorms and Rain
4:13 PM 78.8 °F - 71.6 °F 78% 30.00 in 10.0 mi Calm Calm - 0.00 in   Overcast
4:53 PM 78.1 °F - 71.1 °F 79% 29.98 in 10.0 mi West 5.8 mph - 0.00 in   Overcast
5:53 PM 79.0 °F - 71.1 °F 77% 29.94 in 10.0 mi Variable 4.6 mph - N/A   Mostly Cloudy
6:53 PM 84.6 °F 91.7 °F 73.8 °F 70% 29.93 in 10.0 mi SE 5.8 mph - N/A   Mostly Cloudy
7:53 PM 81.0 °F 85.2 °F 72.0 °F 74% 29.94 in 10.0 mi SSE 8.1 mph - N/A   Mostly Cloudy
8:53 PM 77.5 °F - 70.9 °F 80% 29.94 in 10.0 mi SSE 8.1 mph - N/A   Mostly Cloudy
9:53 PM 76.6 °F - 71.1 °F 83% 29.93 in 10.0 mi South 11.5 mph - N/A   Scattered Clouds
10:53 PM 76.1 °F - 70.5 °F 83% 29.94 in 10.0 mi South 8.1 mph - N/A   Scattered Clouds
11:53 PM 77.0 °F - 70.7 °F 81% 29.96 in 10.0 mi SSW 6.9 mph - N/A   Mostly Cloudy